Regional Weather Roundup
Issued by NWS

Home | Current Version | Previous Version | Graphics & Text | Print | Product List | Glossary On
Versions: 1 2 3 4 5 6 7 8 9 10 11 12 13 14 15 16 17 18 19 20 21 22 23 24 25 26 27 28 29 30 31 32 33 34 35 36 37 38 39 40 41 42 43 44 45 46 47 48 49 50
000
ASUS45 KBOU 220507
RWRCO

WEATHER ROUNDUP FOR COLORADO
NATIONAL WEATHER SERVICE DENVER/BOULDER CO
1000 PM MST TUE FEB 21 2017

NOTE: "FAIR" INDICATES FEW OR NO CLOUDS BELOW 12000 FEET WITH NO
SIGNIFICANT WEATHER AND/OR OBSTRUCTIONS TO VISIBILITY.

COZ001>005-013-030-031-220600-
...NORTHWEST COLORADO...

CITY           SKY/WX    TMP DP  RH WIND       PRES   REMARKS
CRAIG          FAIR      48  29  47 SW25G33   29.93F
HAYDEN         FAIR      45  23  42 SW17G32   29.94F
MEEKER         FAIR      49  30  48 SW13G26   29.98F
MOUNT WERNER   NOT AVBL
STEAMBOAT SPGS FAIR      43  24  45 SW13      29.96F
WALDEN         NOT AVBL
$$

COZ006>008-011-220600-
...WEST CENTRAL VALLEYS...

CITY           SKY/WX    TMP DP  RH WIND       PRES   REMARKS
GRAND JUNCTION FAIR      51  36  56 S5        30.01F
MONTROSE       FAIR      55  30  38 SW23G32   30.07F
EAGLE          PTCLDY    45  28  53 W13       30.03F
RIFLE          FAIR      48  33  56 VRB5      29.99F
DELTA          FAIR      53  35  51 N9        30.07F
NUCLA          FAIR      54  32  43 SW13G28   30.16R
$$

COZ017>023-064>068-220600-
...SOUTHWEST COLORADO...

CITY           SKY/WX    TMP DP  RH WIND       PRES   REMARKS
DURANGO        MOCLDY    43  33  68 CALM      30.24S
CORTEZ         FAIR      50  35  56 CALM      30.19R
PAGOSA SPRINGS CLOUDY    40  30  66 CALM      30.28S
TELLURIDE      FAIR      45  18  33 S5G21     30.26S
WOLF CREEK PAS HVY SNOW  25  25 100 S21G39    30.38F VSB 1/4 WCI  10
$$

COZ009-010-012-014-032>034-037-058>063-220600-
...CENTRAL COLORADO...

CITY           SKY/WX    TMP DP  RH WIND       PRES   REMARKS
ASPEN          MOCLDY    47  21  35 SW14G26   30.05F
BUENA VISTA    FAIR      45  15  30 S13G23    30.12S
COPPER MTN     LGT SNOW  32  16  51 W17G38    30.18F WCI  21
BERTHOUD PASS  FAIR      23  14  68 W40G64    30.08F WCI   3
COTTONWOOD PAS FAIR      41  12  30 S12G26    30.16F
GUNNISON       FAIR      30  26  85 S3        30.18F
KREMMLING      FAIR      50  28  43 SW16G30   30.00S
LEADVILLE      CLOUDY    34  17  50 S15       30.12F WCI  24
MONARCH PASS   FAIR      27  18  69 SW43G53   30.31F WCI   8
SALIDA         FAIR      49  15  25 W10G18    30.20F
SUNLIGHT       NOT AVBL
WILKERSON PASS FAIR      30  10  43 S6        30.21S WCI  24
$$

COZ069>075-220600-
...SAN LUIS VALLEY/SANGRE DE CRISTO MOUNTAINS...

CITY           SKY/WX    TMP DP  RH WIND       PRES   REMARKS
ALAMOSA        FAIR      38  27  64 S9        30.22F
LA VETA PASS   FAIR      34  21  60 N10G23    30.31S WCI  26
SAGUACHE       FAIR      45  23  42 W7        30.17F
$$

COZ035-036-038>040-220600-
...NORTHERN COLORADO FRONT RANGE...

CITY           SKY/WX    TMP DP  RH WIND       PRES   REMARKS
DENVER INTL AP FAIR      58  11  15 SW22      29.90F
DMNS CITY PARK   N/A     60  10  14 SW10G18   29.92S
AURORA         MOCLDY    57  11  16 SW15G24   29.95R
FRONT RANGE AP NOT AVBL
ERIE MUNI ARPT FAIR      50   9  19 S12       29.90F
BOULDER MUN AP FAIR      50  12  22 S7        29.90F
CENTENNIAL     FAIR      57   9  14 SW22G30   29.95F
BROOMFIELD     PTCLDY    55  10  16 S5        29.93S
FORT COLLINS   FAIR      60  16  18 SW29G38   29.86F
LONGMONT       FAIR      44  13  29 SW3       29.91F
$$

COZ041-046-047-076>085-087-088-220600-
...PIKES PEAK/PALMER DIVIDE AND SOUTHERN FOOTHILLS...

CITY           SKY/WX    TMP DP  RH WIND       PRES   REMARKS
COLO. SPRINGS  FAIR      57   8  14 W20G33    30.03F
A. F. ACADEMY  FAIR      55  10  16 SW20G33   30.03F
SCHRIEVER AFB  FAIR      55   7  14 SW22G32   30.03F
ELLICOTT       FAIR     N/A N/A N/A W18G26    30.01F
FALCON         FAIR      53   7  16 SW22G29   30.06S
FORT CARSON    FAIR      58   8  13 SW21      30.01F
LIMON          FAIR      55   7  14 W10       29.94F
MONUMENT HILL  FAIR      50  10  20 SW25G35   30.03F
TRINIDAD       FAIR      51   3  14 SW12      30.09S
$$

COZ042>045-048>051-090-091-220600-
...NORTHEAST COLORADO...

CITY           SKY/WX    TMP DP  RH WIND       PRES   REMARKS
GREELEY ARPT   FAIR      53  11  18 SW9       29.87F
AKRON          FAIR      51  12  21 SW21      29.86F
BURLINGTON     FAIR      49  15  25 W13       29.90F
WRAY           NOT AVBL
STERLING       FAIR      43  18  36 SW10      29.82F
HOLYOKE        FAIR      45  19  36 SW9       29.82F
FORT MORGAN    FAIR      44  15  30 W9        29.87F
$$

COZ086-089-092>099-220600-
...SOUTHEAST COLORADO...

CITY           SKY/WX    TMP DP  RH WIND       PRES   REMARKS
PUEBLO         FAIR      54  21  27 W16       30.00F
LA JUNTA       FAIR      52  14  22 W9        29.98F
LAMAR          FAIR      47  14  26 W5        29.94S
SPRINGFIELD      N/A     49  22  34 W6        29.98F
$$



USA.gov is the U.S. government's official web portal to all federal, state and local government web resources and services.